Flag for Iceland Weather past 2 weeks in Reykjavik, Iceland

Now
54 °F

Scattered showers. Broken clouds.


Feels Like: 53 °F
Forecast: N/A
Wind: 5 mph from West

Location: Reykjavik Airport

Current Time: Jul 28, 2015 at 8:55:04 PM

Latest Report: Jul 28, 2015 at 8:00 PM


Visibility: N/A

Pressure: 29.98 "Hg

Humidity: 72%

Dew point: 45 °F

Location of ReykjavikLocation

Historic Weather in Reykjavik — Graph

°F

Reykjavik temperature yesterday

Maximum temperature yesterday: 55 °F (at 1:00 PM)
Minimum temperature yesterday: 43 °F (at 5:00 AM)
Average temperature yesterday: 51 °F

Past Weeks' High & Low Weather Summary

 TemperatureHumidityPressure
High63 °F (Jul 17, 2:00 PM)94% (Jul 13, 10:00 PM)30.07 "Hg (Jul 13, 10:00 PM)
Low43 °F (Jul 27, 5:00 AM)44% (Jul 27, 1:00 PM)29.65 "Hg (Jul 20, 2:00 PM)
Average52 °F68%29.87 "Hg
* Reported Jul 13 7:00 PM — Jul 28 7:00 PM, Reykjavik, Weather by CustomWeather, © 2015

Note: Actual official high and low records may vary slightly from our data, if they occured in-between our weather recording intervals... More about our weather records

Advertising

Reykjavik weather history for previous 24 hours

 ConditionsComfort  
Time TempWeatherWind HumidityBarometerVisibility
7:00 PM
Tue, Jul 28
55 °FBroken clouds.7 mph63%29.98 "HgN/A
6:00 PM54 °FBroken clouds.9 mph72%29.98 "HgN/A
5:00 PM55 °FBroken clouds.6 mph63%29.98 "HgN/A
4:00 PM54 °FScattered showers. Broken clouds.9 mph72%29.98 "HgN/A
3:00 PM54 °FPartly sunny.6 mph72%29.98 "HgN/A
2:00 PM55 °FBroken clouds.10 mph63%29.98 "HgN/A
1:00 PM55 °FScattered clouds.10 mph59%29.98 "HgN/A
12:00 PM55 °FPassing clouds.8 mph63%29.98 "HgN/A
11:00 AM55 °FPassing clouds.5 mph59%29.98 "HgN/A
10:00 AM54 °FBroken clouds.6 mph67%29.98 "HgN/A
9:00 AM54 °FPassing clouds.No wind67%29.98 "HgN/A
8:00 AM52 °FPassing clouds.3 mph72%29.98 "HgN/A
7:00 AM48 °FSunny.6 mph82%29.98 "Hg10 mi
6:00 AM46 °FSunny.No wind87%29.98 "Hg10 mi
5:00 AM46 °FSunny.8 mph87%29.98 "Hg10 mi
4:00 AM46 °FClear.No wind82%29.98 "Hg10 mi
3:00 AM48 °FClear.6 mph82%29.98 "Hg10 mi
2:00 AM48 °FClear.3 mph76%29.98 "Hg10 mi
1:00 AM50 °FClear.No wind76%29.98 "Hg10 mi
12:00 AM50 °FClear.No wind76%29.98 "Hg10 mi
11:00 PM
Mon, Jul 27
50 °FClear.5 mph82%29.98 "Hg10 mi
10:00 PM52 °FSunny.6 mph77%29.95 "Hg10 mi
9:00 PM52 °FPartly sunny.6 mph77%29.95 "HgN/A
8:00 PM54 °FPartly sunny.7 mph72%29.95 "HgN/A
Weather by CustomWeather, © 2015

See weather overviewHow to use our weather pages